EW5026 Weather Reports


Display with metric or nautical units.
time (UTC)temp
F
wind
direction
speed
MPH
gust
MPH
rain 1hr
in
rain 24hr
in
rain mn
in
humidity
%
barometer
mb
20260902120055 72 153 0.0 0.0 0.00 0.00 0.00 92 1013.3
20260902115555 71 153 0.0 0.0 0.00 0.00 0.00 92 1013.3
20260902115052 71 212 0.0 0.0 0.00 0.00 0.00 93 1013.3
20260902114552 71 212 0.0 0.0 0.00 0.00 0.00 92 1013.3
20260902114054 71 212 0.0 0.0 0.00 0.00 0.00 92 1013.3
20260902113551 71 212 0.0 0.0 0.00 0.00 0.00 92 1013.3
20260902113051 71 212 0.0 0.0 0.00 0.00 0.00 92 1013.3
20260902112551 71 212 0.0 0.0 0.00 0.00 0.00 92 1013.3
20260902112051 71 212 0.0 0.0 0.00 0.00 0.00 92 1013.2
20260902111552 71 212 0.0 2.0 0.00 0.00 0.00 91 1013.2
20260902111050 71 212 0.0 2.0 0.00 0.00 0.00 91 1013.2
20260902110550 71 212 1.0 2.0 0.00 0.00 0.00 92 1013.1
20260902110057 71 212 0.0 2.0 0.00 0.00 0.00 92 1013.1
20260902105550 71 212 1.0 2.0 0.00 0.00 0.00 92 1013.1
20260902105049 71 212 0.0 0.0 0.00 0.00 0.00 92 1013.2
20260902104550 71 212 0.0 0.0 0.00 0.00 0.00 91 1013.1
20260902104048 71 212 0.0 0.0 0.00 0.00 0.00 91 1013.1
20260902103547 71 212 0.0 0.0 0.00 0.00 0.00 91 1013.2
20260902103047 71 212 0.0 0.0 0.00 0.00 0.00 91 1013.2
20260902102547 71 212 0.0 0.0 0.00 0.00 0.00 90 1013.1
20260902102046 71 212 0.0 0.0 0.00 0.00 0.00 90 1013.1
20260902101553 72 212 0.0 2.0 0.00 0.00 0.00 90 1013.0
20260902101044 72 212 0.0 2.0 0.00 0.00 0.00 90 1013.0
20260902100544 72 212 0.0 1.0 0.00 0.00 0.00 90 1013.0
20260902100043 72 212 0.0 1.0 0.00 0.00 0.00 89 1012.9
20260902095542 72 212 0.0 1.0 0.00 0.00 0.00 89 1012.9
20260902095044 72 212 0.0 1.0 0.00 0.00 0.00 89 1013.0
20260902094545 72 212 0.0 1.0 0.00 0.00 0.00 89 1013.0
20260902094042 73 212 0.0 0.0 0.00 0.00 0.00 88 1012.9
20260902093541 73 212 0.0 0.0 0.00 0.00 0.00 88 1013.0
20260902093042 73 212 0.0 0.0 0.00 0.00 0.00 87 1013.0
20260902092540 73 212 0.0 0.0 0.00 0.00 0.00 87 1013.0
20260902092040 74 212 0.0 0.0 0.00 0.00 0.00 87 1013.0
20260902091558 74 212 0.0 2.0 0.00 0.00 0.00 87 1013.0
20260902091039 74 212 0.0 3.0 0.00 0.00 0.00 87 1012.9
20260902090543 74 212 1.0 4.0 0.00 0.00 0.00 88 1012.9
20260902090042 73 222 1.0 4.0 0.00 0.00 0.00 88 1012.9
20260902085537 73 180 0.0 0.0 0.00 0.00 0.00 89 1012.8
20260902085037 72 178 0.0 0.0 0.00 0.00 0.00 90 1012.7
20260902084547 72 178 0.0 0.0 0.00 0.00 0.00 90 1012.6
20260902084038 73 178 0.0 0.0 0.00 0.00 0.00 89 1012.6
20260902083538 73 178 0.0 0.0 0.00 0.00 0.00 89 1012.5
20260902083042 73 178 0.0 0.0 0.00 0.00 0.00 90 1012.6
20260902082536 73 178 0.0 0.0 0.00 0.00 0.00 90 1012.5
20260902082036 73 178 0.0 0.0 0.00 0.00 0.00 90 1012.5
20260902081539 73 178 0.0 0.0 0.00 0.00 0.00 90 1012.5
20260902081035 73 178 0.0 0.0 0.00 0.00 0.00 90 1012.5
20260902080534 73 178 0.0 0.0 0.00 0.00 0.00 90 1012.4
20260902080034 73 178 0.0 0.0 0.00 0.00 0.00 90 1012.5
20260902075533 73 178 0.0 0.0 0.00 0.00 0.00 90 1012.5
20260902075035 73 178 0.0 0.0 0.00 0.00 0.00 91 1012.5
20260902074534 73 178 0.0 0.0 0.00 0.00 0.00 90 1012.4
20260902074034 73 178 0.0 0.0 0.00 0.00 0.00 90 1012.4
20260902073532 74 178 0.0 0.0 0.00 0.00 0.00 90 1012.4
20260902073037 74 178 0.0 0.0 0.00 0.00 0.00 90 1012.5
20260902072530 74 178 0.0 0.0 0.00 0.00 0.00 91 1012.5
20260902072031 74 178 0.0 0.0 0.00 0.00 0.00 91 1012.6
20260902071534 74 178 0.0 0.0 0.00 0.00 0.00 91 1012.6
20260902071031 74 178 0.0 0.0 0.00 0.00 0.00 90 1012.6
20260902070530 74 178 0.0 0.0 0.00 0.00 0.00 90 1012.6
20260902070039 74 178 0.0 0.0 0.00 0.00 0.00 90 1012.6
20260902065529 74 178 0.0 2.0 0.00 0.00 0.00 91 1012.6
20260902065030 74 178 0.0 2.0 0.00 0.00 0.00 91 1012.7
20260902064538 74 178 1.0 2.0 0.00 0.00 0.00 91 1012.6
20260902064029 74 178 0.0 2.0 0.00 0.00 0.00 91 1012.6
20260902063530 74 178 0.0 2.0 0.00 0.00 0.00 91 1012.6
20260902063033 74 178 0.0 2.0 0.00 0.00 0.00 91 1012.6
20260902062529 74 178 0.0 0.0 0.00 0.00 0.00 91 1012.6
20260902062028 74 178 0.0 1.0 0.00 0.00 0.00 91 1012.5
20260902061528 74 178 0.0 1.0 0.00 0.00 0.00 90 1012.4
20260902061027 74 178 0.0 0.0 0.00 0.00 0.00 90 1012.5
20260902060529 74 178 0.0 3.0 0.00 0.00 0.00 90 1012.6
20260902060025 75 178 0.0 3.0 0.00 0.00 0.00 90 1012.6
20260902055526 75 178 1.0 3.0 0.00 0.00 0.00 90 1012.7
20260902055025 75 171 1.0 2.0 0.00 0.00 0.00 90 1012.6
20260902054524 75 171 0.0 2.0 0.00 0.00 0.00 90 1012.6
20260902054024 75 171 0.0 2.0 0.00 0.00 0.00 90 1012.6
20260902053524 75 171 1.0 3.0 0.00 0.00 0.00 90 1012.6
20260902053024 75 171 1.0 3.0 0.00 0.00 0.00 90 1012.6
20260902052527 75 176 1.0 3.0 0.00 0.00 0.00 90 1012.6
20260902052024 75 163 1.0 2.0 0.00 0.00 0.00 90 1012.6
20260902051523 75 163 0.0 2.0 0.00 0.00 0.00 90 1012.7
20260902051023 75 163 1.0 3.0 0.00 0.00 0.00 90 1012.7
20260902050522 75 163 1.0 3.0 0.00 0.00 0.00 91 1012.8
20260902050021 75 119 1.0 2.0 0.00 0.00 0.00 91 1012.8
20260902045525 74 119 1.0 2.0 0.00 0.00 0.00 91 1012.7
20260902045020 74 119 1.0 2.0 0.00 0.00 0.00 91 1012.7
20260902044520 74 119 0.0 2.0 0.00 0.00 0.00 91 1012.7
20260902044020 74 119 0.0 0.0 0.00 0.00 0.00 90 1012.7
20260902043519 74 119 0.0 2.0 0.00 0.00 0.00 90 1012.8
20260902043020 74 119 0.0 2.0 0.00 0.00 0.00 90 1012.8
20260902042520 74 119 1.0 2.0 0.00 0.00 0.00 90 1012.8
20260902042021 74 119 0.0 2.0 0.00 0.00 0.00 90 1012.7
20260902041539 74 119 0.0 3.0 0.00 0.00 0.00 90 1012.7
20260902041019 74 119 1.0 3.0 0.00 0.00 0.00 91 1012.7
20260902040519 74 119 1.0 2.0 0.00 0.00 0.00 91 1012.7
20260902040018 74 119 0.0 0.0 0.00 0.00 0.00 91 1012.7
20260902035522 74 119 0.0 0.0 0.00 0.00 0.00 91 1012.8
20260902035018 74 119 0.0 2.0 0.00 0.00 0.00 91 1012.8
20260902034518 75 119 0.0 2.0 0.00 0.00 0.00 91 1012.8
20260902034018 75 119 0.0 2.0 0.00 0.00 0.00 91 1012.8
20260902033518 74 119 0.0 0.0 0.00 0.00 0.00 91 1012.7
20260902033018 74 119 0.0 0.0 0.00 0.00 0.00 91 1012.8
20260902032519 74 119 0.0 0.0 0.00 0.00 0.00 91 1012.7
20260902032017 74 119 0.0 0.0 0.00 0.00 0.00 91 1012.8
20260902031518 74 119 0.0 0.0 0.00 0.00 0.00 91 1012.8
20260902031018 74 119 0.0 0.0 0.00 0.00 0.00 91 1012.8
20260902030519 74 119 0.0 0.0 0.00 0.00 0.00 91 1012.8
20260902030017 75 119 0.0 0.0 0.00 0.00 0.00 91 1012.8
20260902025517 75 119 0.0 0.0 0.00 0.00 0.00 91 1012.8
20260902025017 75 119 0.0 0.0 0.00 0.00 0.00 91 1012.8
20260902024517 75 119 0.0 0.0 0.00 0.00 0.00 91 1012.8
20260902024016 75 119 0.0 0.0 0.00 0.00 0.00 91 1012.8
20260902023516 75 119 0.0 0.0 0.00 0.00 0.00 91 1012.8
20260902023017 75 119 0.0 0.0 0.00 0.00 0.00 91 1012.8
20260902022519 76 119 0.0 0.0 0.00 0.00 0.00 91 1012.7
20260902022016 76 119 0.0 0.0 0.00 0.00 0.00 90 1012.7
20260902021516 76 119 0.0 0.0 0.00 0.00 0.00 91 1012.7
20260902021016 76 119 0.0 0.0 0.00 0.00 0.00 90 1012.7
20260902020519 76 119 0.0 0.0 0.00 0.00 0.00 90 1012.6
20260902020028 76 119 0.0 0.0 0.00 0.00 0.00 90 1012.6
20260902015515 77 119 0.0 0.0 0.00 0.00 0.00 89 1012.5
20260902015015 77 119 0.0 0.0 0.00 0.00 0.00 89 1012.6
20260902014515 77 119 0.0 0.0 0.00 0.00 0.00 89 1012.5
20260902014017 77 119 0.0 1.0 0.00 0.00 0.00 89 1012.5
20260902013514 77 119 0.0 1.0 0.00 0.00 0.00 88 1012.4
20260902013015 77 119 0.0 1.0 0.00 0.00 0.00 88 1012.4
20260902012515 78 119 0.0 1.0 0.00 0.00 0.00 87 1012.3
20260902012014 78 119 0.0 1.0 0.00 0.00 0.00 87 1012.3
20260902011517 79 119 0.0 1.0 0.00 0.00 0.00 86 1012.2
20260902011014 79 119 0.0 2.0 0.00 0.00 0.00 85 1012.2
20260902010513 80 119 0.0 2.0 0.00 0.00 0.00 84 1012.2
20260902010020 80 119 0.0 2.0 0.00 0.00 0.00 83 1012.2
20260902005515 81 194 0.0 1.0 0.00 0.00 0.00 82 1012.1
20260902005012 81 194 0.0 2.0 0.00 0.00 0.00 82 1012.0
20260902004513 82 194 0.0 2.0 0.00 0.00 0.00 81 1012.0
20260902004013 82 178 0.0 1.0 0.00 0.00 0.00 81 1012.0
20260902003512 83 178 0.0 1.0 0.00 0.00 0.00 80 1011.9
20260902003012 84 178 0.0 1.0 0.00 0.00 0.00 80 1011.9
20260902002511 85 178 0.0 1.0 0.00 0.00 0.00 79 1012.0
20260902002011 86 178 0.0 0.0 0.00 0.00 0.00 78 1011.9
20260902001517 86 178 0.0 0.0 0.00 0.00 0.00 77 1012.0
20260902001012 87 178 0.0 0.0 0.00 0.00 0.00 77 1011.9
20260902000510 88 178 0.0 0.0 0.00 0.00 0.00 76 1011.9
20260902000022 89 178 0.0 0.0 0.00 0.00 0.00 74 1012.0
20260901235510 89 178 0.0 0.0 0.00 0.00 0.00 73 1011.9
20260901235012 90 178 0.0 0.0 0.00 0.00 0.00 72 1012.0
20260901234510 90 178 0.0 2.0 0.00 0.00 0.00 72 1012.1
20260901234010 90 178 0.0 3.0 0.00 0.00 0.00 71 1012.1
20260901233514 91 186 0.0 3.0 0.00 0.00 0.00 70 1012.1
20260901233010 91 195 0.0 4.0 0.00 0.00 0.00 70 1012.1
20260901232510 91 202 1.0 4.0 0.00 0.00 0.00 69 1012.0
20260901232010 91 180 0.0 4.0 0.00 0.00 0.00 68 1012.0
20260901231515 92 188 1.0 5.0 0.00 0.00 0.00 66 1012.1
20260901231013 92 207 2.0 6.0 0.00 0.00 0.00 66 1012.0
20260901230509 93 198 2.0 6.0 0.00 0.00 0.00 65 1012.0
20260901230010 93 195 2.0 6.0 0.00 0.00 0.00 65 1012.0
20260901225508 93 190 2.0 5.0 0.00 0.00 0.00 64 1012.0
20260901225008 94 183 2.0 5.0 0.00 0.00 0.00 64 1011.9
20260901224514 94 229 1.0 5.0 0.00 0.00 0.00 63 1011.9
20260901224010 94 202 1.0 6.0 0.00 0.00 0.00 64 1011.9
20260901223508 94 191 2.0 7.0 0.00 0.00 0.00 61 1011.9
20260901223008 94 213 3.0 7.0 0.00 0.00 0.00 60 1012.0
20260901222511 94 212 3.0 7.0 0.00 0.00 0.00 61 1011.9
20260901222007 94 192 3.0 6.0 0.00 0.00 0.00 61 1012.0
20260901221518 94 198 2.0 6.0 0.00 0.00 0.00 62 1012.0
20260901221009 94 219 3.0 6.0 0.00 0.00 0.00 62 1012.0
20260901220506 95 181 3.0 6.0 0.00 0.00 0.00 62 1012.1
20260901220007 94 199 3.0 7.0 0.00 0.00 0.00 60 1012.0
20260901215507 94 200 3.0 8.0 0.00 0.00 0.00 60 1011.9
20260901215007 95 180 3.0 8.0 0.00 0.00 0.00 59 1012.0
20260901214506 95 209 4.0 7.0 0.00 0.00 0.00 59 1011.9
20260901214009 95 207 4.0 8.0 0.00 0.00 0.00 62 1011.9
20260901213506 95 211 5.0 8.0 0.00 0.00 0.00 58 1011.9
20260901213005 95 182 4.0 8.0 0.00 0.00 0.00 61 1011.9
20260901212504 95 197 4.0 7.0 0.00 0.00 0.00 59 1012.0
20260901212009 95 176 4.0 9.0 0.00 0.00 0.00 62 1012.1
20260901211504 95 185 4.0 9.0 0.00 0.00 0.00 61 1012.1
20260901211004 95 168 5.0 8.0 0.00 0.00 0.00 59 1012.0
20260901210503 96 246 5.0 8.0 0.00 0.00 0.00 60 1012.1
20260901210003 96 215 3.0 8.0 0.00 0.00 0.00 62 1012.1
20260901205502 95 234 2.0 7.0 0.00 0.00 0.00 56 1012.1
20260901205004 95 229 4.0 7.0 0.00 0.00 0.00 61 1012.1
20260901204502 95 205 5.0 9.0 0.00 0.00 0.00 63 1012.2
20260901204001 95 188 5.0 9.0 0.00 0.00 0.00 62 1012.2
20260901203501 95 174 4.0 9.0 0.00 0.00 0.00 64 1012.1
20260901203001 95 203 4.0 11.0 0.00 0.00 0.00 63 1012.1
20260901202501 95 196 5.0 11.0 0.00 0.00 0.00 62 1012.2
20260901202002 95 225 6.0 10.0 0.00 0.00 0.00 64 1012.2
20260901201600 95 206 4.0 9.0 0.00 0.00 0.00 63 1012.2
20260901201100 95 225 4.0 9.0 0.00 0.00 0.00 62 1012.2
20260901200559 95 187 5.0 9.0 0.00 0.00 0.00 64 1012.3
20260901200105 95 227 5.0 10.0 0.00 0.00 0.00 63 1012.3
20260901195600 95 235 4.0 10.0 0.00 0.00 0.00 63 1012.3
20260901195058 95 253 4.0 9.0 0.00 0.00 0.00 64 1012.3
20260901194606 95 226 5.0 9.0 0.00 0.00 0.00 63 1012.3
20260901194058 95 207 5.0 9.0 0.00 0.00 0.00 64 1012.3
20260901193557 95 200 2.0 7.0 0.00 0.00 0.00 67 1012.4
20260901193059 95 182 4.0 10.0 0.00 0.00 0.00 66 1012.4
20260901192556 95 186 5.0 9.0 0.00 0.00 0.00 65 1012.5
20260901192055 94 200 4.0 9.0 0.00 0.00 0.00 66 1012.5
20260901191602 94 206 5.0 10.0 0.00 0.00 0.00 65 1012.5
20260901191054 94 225 4.0 10.0 0.00 0.00 0.00 65 1012.6
20260901190554 94 220 4.0 10.0 0.00 0.00 0.00 65 1012.6
20260901190109 94 215 5.0 8.0 0.00 0.00 0.00 64 1012.6
20260901185556 94 204 4.0 8.0 0.00 0.00 0.00 66 1012.6
20260901185052 94 223 3.0 7.0 0.00 0.00 0.00 69 1012.6
20260901184552 94 168 3.0 9.0 0.00 0.00 0.00 68 1012.8
20260901184051 93 230 4.0 9.0 0.00 0.00 0.00 67 1012.8
20260901183549 93 243 4.0 9.0 0.00 0.00 0.00 68 1012.8
20260901183048 92 220 2.0 8.0 0.00 0.00 0.00 71 1012.8
20260901182549 92 206 4.0 8.0 0.00 0.00 0.00 70 1012.9
20260901182048 92 207 4.0 8.0 0.00 0.00 0.00 70 1012.9
20260901181548 92 180 3.0 10.0 0.00 0.00 0.00 69 1012.9
20260901181047 92 202 3.0 10.0 0.00 0.00 0.00 68 1012.9
20260901180547 92 205 3.0 7.0 0.00 0.00 0.00 69 1012.9
20260901180047 92 200 3.0 8.0 0.00 0.00 0.00 69 1013.0
20260901175546 92 173 3.0 8.0 0.00 0.00 0.00 70 1013.0
20260901175046 92 184 4.0 7.0 0.00 0.00 0.00 70 1013.0
20260901174552 92 184 2.0 6.0 0.00 0.00 0.00 70 1013.1
20260901174047 92 202 3.0 6.0 0.00 0.00 0.00 68 1013.1
20260901173546 92 242 3.0 6.0 0.00 0.00 0.00 71 1013.1
20260901173045 92 216 3.0 6.0 0.00 0.00 0.00 70 1013.2
20260901172547 92 161 0.0 7.0 0.00 0.00 0.00 71 1013.3
20260901172044 91 220 3.0 7.0 0.00 0.00 0.00 70 1013.4
20260901171546 91 217 3.0 7.0 0.00 0.00 0.00 71 1013.4
20260901171042 91 207 3.0 7.0 0.00 0.00 0.00 71 1013.4
20260901170542 91 216 2.0 7.0 0.00 0.00 0.00 71 1013.4
20260901170040 91 289 3.0 5.0 0.00 0.00 0.00 69 1013.5
20260901165539 91 171 1.0 5.0 0.00 0.00 0.00 70 1013.5
20260901165043 90 259 3.0 7.0 0.00 0.00 0.00 71 1013.5
20260901164542 90 250 2.0 7.0 0.00 0.00 0.00 71 1013.5
20260901164039 90 234 3.0 9.0 0.00 0.00 0.00 72 1013.5
20260901163535 89 220 3.0 9.0 0.00 0.00 0.00 74 1013.5
20260901163036 89 228 3.0 6.0 0.00 0.00 0.00 74 1013.5
20260901162535 89 231 3.0 6.0 0.00 0.00 0.00 73 1013.5
20260901162035 89 217 2.0 7.0 0.00 0.00 0.00 72 1013.5
20260901161535 89 244 2.0 7.0 0.00 0.00 0.00 73 1013.5
20260901161034 89 238 3.0 7.0 0.00 0.00 0.00 72 1013.6
20260901160535 89 165 2.0 8.0 0.00 0.00 0.00 74 1013.7
20260901160033 89 263 2.0 8.0 0.00 0.00 0.00 74 1013.6
20260901155530 88 217 2.0 8.0 0.00 0.00 0.00 74 1013.6
20260901155029 88 219 2.0 8.0 0.00 0.00 0.00 73 1013.6
20260901154530 88 199 3.0 7.0 0.00 0.00 0.00 73 1013.5
20260901154031 87 264 2.0 7.0 0.00 0.00 0.00 74 1013.6
20260901153529 87 213 2.0 6.0 0.00 0.00 0.00 74 1013.5
20260901153032 86 224 2.0 6.0 0.00 0.00 0.00 76 1013.5
20260901152523 86 213 3.0 7.0 0.00 0.00 0.00 74 1013.4
20260901152022 85 246 4.0 7.0 0.00 0.00 0.00 74 1013.5
20260901151522 85 236 3.0 7.0 0.00 0.00 0.00 76 1013.6
20260901151026 84 205 3.0 7.0 0.00 0.00 0.00 75 1013.6
20260901150521 84 235 2.0 7.0 0.00 0.00 0.00 74 1013.6
20260901150029 85 173 3.0 7.0 0.00 0.00 0.00 75 1013.5
20260901145520 84 249 3.0 7.0 0.00 0.00 0.00 76 1013.5
20260901145020 84 221 4.0 10.0 0.00 0.00 0.00 73 1013.5
20260901144519 84 223 3.0 10.0 0.00 0.00 0.00 75 1013.5
20260901144019 84 232 2.0 6.0 0.00 0.00 0.00 76 1013.4
20260901143516 83 260 2.0 7.0 0.00 0.00 0.00 79 1013.5
20260901143016 83 293 3.0 7.0 0.00 0.00 0.00 76 1013.5
20260901142515 83 219 3.0 7.0 0.00 0.00 0.00 76 1013.5
20260901142014 83 252 3.0 8.0 0.00 0.00 0.00 77 1013.5
20260901141515 82 223 4.0 8.0 0.00 0.00 0.00 76 1013.4
20260901141016 82 232 2.0 8.0 0.00 0.00 0.00 79 1013.4
20260901140511 82 229 3.0 8.0 0.00 0.00 0.00 78 1013.5
20260901140019 81 225 3.0 8.0 0.00 0.00 0.00 78 1013.6
20260901135510 81 196 2.0 7.0 0.00 0.00 0.00 80 1013.6
20260901135012 81 214 3.0 7.0 0.00 0.00 0.00 79 1013.6
20260901134511 81 227 2.0 5.0 0.00 0.00 0.00 81 1013.6
20260901134006 80 209 1.0 6.0 0.00 0.00 0.00 83 1013.6
20260901133505 79 216 2.0 7.0 0.00 0.00 0.00 82 1013.6
20260901133010 79 209 3.0 7.0 0.00 0.00 0.00 82 1013.6
20260901132504 79 207 2.0 5.0 0.00 0.00 0.00 83 1013.7
20260901132003 79 186 1.0 5.0 0.00 0.00 0.00 83 1013.7
20260901131502 78 178 1.0 7.0 0.00 0.00 0.00 84 1013.7
20260901131001 78 226 3.0 7.0 0.00 0.00 0.00 83 1013.7
20260901130600 78 232 1.0 6.0 0.00 0.00 0.00 85 1013.7
20260901130058 77 194 2.0 6.0 0.00 0.00 0.00 86 1013.6
20260901125557 76 169 1.0 4.0 0.00 0.00 0.00 88 1013.6
20260901125058 75 166 0.0 4.0 0.00 0.00 0.00 90 1013.6
20260901124556 75 186 2.0 4.0 0.00 0.00 0.00 90 1013.5
20260901124057 74 159 1.0 4.0 0.00 0.00 0.00 91 1013.6
20260901123555 73 153 1.0 3.0 0.00 0.00 0.00 93 1013.6
20260901123055 73 183 1.0 3.0 0.00 0.00 0.00 94 1013.5
20260901122554 72 183 1.0 3.0 0.00 0.00 0.00 94 1013.6
20260901122058 71 183 1.0 3.0 0.00 0.00 0.00 93 1013.6
20260901121556 71 183 1.0 3.0 0.00 0.00 0.00 93 1013.5
20260901121055 71 183 1.0 3.0 0.00 0.00 0.00 93 1013.6
20260901120553 71 183 1.0 3.0 0.00 0.00 0.00 93 1013.5